Regional Weather Roundup
Issued by NWS Wakefield, VA

Home | Current Version | Previous Version | Graphics & Text | Print | Product List | Glossary On
Versions: 1 2 3 4 5 6 7 8 9 10 11 12 13 14 15 16 17 18 19 20 21 22 23 24 25 26 27 28 29 30 31 32 33 34 35 36 37 38 39 40 41 42 43 44 45 46 47 48 49 50
313
ASUS41 KAKQ 201415
RWRAKQ

REGIONAL WEATHER ROUNDUP
NATIONAL WEATHER SERVICE WAKEFIELD VA
1000 AM EDT FRI OCT 20 2017

Note: "fair" indicates few or no clouds below 12,000 feet with no
significant weather and/or obstructions to visibility. * = Denotes
station may not report precipitation (e.g., rain,snow,etc.),
thunder or fog.

VAZ042-051-052>054-056-201500-
NORTHERN VIRGINIA

CITY           SKY/WX    TMP DP  RH WIND       PRES   REMARKS
WASH NATIONAL  CLOUDY    69  50  50 NW9       30.25R
DULLES         PTSUNNY   65  51  60 CALM      30.27R
FORT BELVOIR   SUNNY     63  54  74 NW5       30.25R
QUANTICO       PTSUNNY   62  51  67 CALM      30.27R
FREDERICKSBRG* SUNNY     62  52  71 CALM      30.26R
STAFFORD*      SUNNY     60  55  81 CALM      30.30R
WARRENTON      SUNNY     62  48  60 CALM      30.27R
CULPEPER*      SUNNY     61  50  67 CALM      30.28R
MANASSAS*      SUNNY     56  51  84 CALM      30.27R
LEESBURG*      SUNNY     68  54  60 NW10      30.28R
WINCHESTER     SUNNY     63  50  63 W3        30.28R
FRONT ROYAL*   SUNNY     61  46  59 S3        30.28R
LURAY*         SUNNY     57  46  67 S3        30.29S
$$

VAZ048-049-060>072-079>083-201500-
CENTRAL AND SOUTH CENTRAL VIRGINIA

CITY           SKY/WX    TMP DP  RH WIND       PRES   REMARKS
RICHMOND       MOSUNNY   63  51  65 CALM      30.26R
CHESTERFIELD*  NOT AVBL
PETERSBURG*    SUNNY     61  50  68 NW3       30.26S
HANOVER        SUNNY     62  51  67 NW5       30.28R
TAPPAHANNOCK*  SUNNY     63  45  51 CALM      30.26R
QUINTON*       FAIR      59  53  81 CALM      30.26R
CHARLOTTSVILLE SUNNY     65  48  54 W5        30.27R
GORDONSVILLE*  SUNNY     64  56  75 CALM      30.27R
ORANGE*        SUNNY     64  50  59 W6        30.27R
LOUISA*        SUNNY     63  50  63 CALM      30.27R
BUMPASS*       FAIR      63  50  62 CALM      30.27R
FARMVILLE*     SUNNY     62  53  73 CALM      30.27R
CREWE*         FAIR      64  54  69 CALM      30.27S
FORT PICKETT*  FAIR      65  46  50 NW6       30.27S
CHASE CITY*    FAIR      60  48  64 CALM      30.29R
CLARKSVILLE*   FAIR      59  48  67 NW3       30.29R
SOUTH HILL*    SUNNY     63  49  62 N3        30.33R
LAWRENCEVILLE* FAIR      63  49  60 CALM      30.26S
EMPORIA*       SUNNY     59  50  72 CALM      30.27S
$$

VAZ088>098-201500-
SOUTHEAST VIRGINIA

CITY           SKY/WX    TMP DP  RH WIND       PRES   REMARKS
NORFOLK        SUNNY     68  56  65 N3        30.24R
VIRGINIA BEACH MOSUNNY   65  56  72 N6        30.23S
NORFOLK NAVAL  MOSUNNY   67  54  63 N5        30.26R
WEST POINT*    SUNNY     60  56  87 CALM      30.27S
SALUDA*        NOT AVBL
NEWPORT NEWS   SUNNY     66  56  70 CALM      30.25R
LANGLEY AFB    MOSUNNY   68  59  73 N6        30.24R
FORT EUSTIS    SUNNY     66  55  69 CALM      30.23R
WILLIAMSBURG*  SUNNY     59  59 100 CALM      30.26S
HR EXEC AP*    NOT AVBL
FRANKLIN*      SUNNY     58  51  76 CALM      30.26S
US460-WAKEFLD  SUNNY     63  54  72 CALM      30.26R
$$

VAZ020-022-025-037-045-201500-
WEST CENTRAL AND SOUTHWEST VIRGINIA

CITY           SKY/WX    TMP DP  RH WIND       PRES   REMARKS
STAUNTON*      SUNNY     55  44  66 CALM      30.34R
WAYNESBORO*    SUNNY     59  48  66 CALM      30.32R
HOT SPRINGS VA SUNNY     55  44  67 NW8       30.37R
LYNCHBURG      SUNNY     62  52  69 CALM      30.30R
DANVILLE       SUNNY     58  51  78 W3        30.30R
SOUTH BOSTON*  FAIR      57  49  74 CALM      30.29R
MARTINSVILLE   SUNNY     59  52  77 NW3       30.33S
ROANOKE        SUNNY     61  47  59 N3        30.35R
BLACKSBURG     SUNNY     57  47  67 CALM      30.38R
DUBLIN*        SUNNY     60  49  68 CALM      30.36S
MARION*        SUNNY     58  43  57 SW7       30.39R
HILLSVILLE*    SUNNY     57  39  52 CALM      30.35R
RICHLANDS*     FAIR      56  14  19 CALM      30.38R
WISE*          SUNNY     61  46  59 CALM      30.38S
ABINGDON*      SUNNY     57  47  68 SE3       30.37R
$$

MDZ021>025-VAZ099-100-201500-
SOUTHERN MARYLAND AND THE DELMARVA PENINSULA

CITY           SKY/WX    TMP DP  RH WIND       PRES   REMARKS
PATUXENT RIVER MOSUNNY   68  52  56 NW7       30.24R
BAY BRIDGE APT CLOUDY    66  52  59 N10       30.24R
LEONARDTOWN    NOT AVBL
DOVER          MOSUNNY   67  51  57 NW13      30.21R
GEORGETOWN     SUNNY     66  51  58 VRB6      30.23R
EASTON         SUNNY     66  54  63 NW3       30.26S
CAMBRIDGE      SUNNY     66  54  63 N7        30.23R
SALISBURY      SUNNY     65  55  70 NW8       30.22R
OCEAN CITY     SUNNY     66  55  67 NW8       30.22S
WALLOPS ISLAND MOSUNNY   67  56  67 MISG      30.23S
ACCOMACK*      SUNNY     67  59  77 NW5       30.23S
$$

NCZ012>017-030>032-201500-
NORTH CENTRAL AND EASTERN NORTH CAROLINA

CITY           SKY/WX    TMP DP  RH WIND       PRES   REMARKS
ROANOKE RAPIDS FAIR      59  54  82 CALM      30.26R
RALEIGH        MOSUNNY   61  50  67 VRB3      30.29R
ELIZABETH CITY SUNNY     66  56  70 NW7       30.25R
AHOSKIE*       HAZE      56  51  80 N3        30.26R VSB 1/4
EDENTON*       SUNNY     65  55  70 CALM      30.25S
CURRITUCK*     SUNNY     62  54  75 NW5       30.25R
KILL DEVIL HLS SUNNY     66  66  99 CALM      30.23R
MANTEO         SUNNY    N/A N/A N/A W5        30.24S
CAPE HATTERAS  SUNNY     72  64  76 NW5       30.25R
TARBORO*       NOT AVBL
GOLDSBORO      SUNNY     63  50  63 W5        30.25S HAZE
WASHINGTON     SUNNY     63  52  68 W3        30.26S
GREENVILLE     SUNNY     57  55  94 NW3       30.26S
NEW BERN       SUNNY     67  55  65 W3        30.27S
WILMINGTON     SUNNY     68  58  70 NW3       30.27R
$$

VAZ048-201500-
ELSEWHERE

CITY           SKY/WX    TMP DP  RH WIND       PRES   REMARKS
HARRISBURG PA  SUNNY     63  53  70 W7        30.24R
BALTIMORE      PTSUNNY   66  51  58 W7        30.24R
ANNAPOLIS      CLOUDY    67  54  63 NW7       30.24R
ANDREWS AFB    CLOUDY    67  49  52 NW8       30.24R
PHILADELPHIA   MOSUNNY   65  48  54 NW10      30.23R
HENDERSON NC   SUNNY     58  44  60 N7        30.28R
GREENSBORO     MOSUNNY   65  49  56 N5        30.30R
ROCKY MOUNT    SUNNY     60  51  72 N7        30.27R
$$

VAZ100-201500-
MARINE

STATION/POSITION TIME  TEMP    WIND        PRES    WAVE   SWELL
                       AIR SEA DIR/SP/G            HT/PER HT/PER
                 (UTC) (F)     (DEG/KT/KT) (MB)    (FT/S) (FT/S)
BRANDYWINE LGT   1336   65     340/ 14/ 16 1023.2R
CAPE MAY NJ      1348   66 65  350/ 10/ 14 1022.6R
LEWES DE         1348   64 65  330/ 11/ 12 1023.0R
15NM E FENWICK I 1350   66 67  310/ 14/ 16 1023.0R   3/ 9   2/ 9
OCEAN-CITY-INLET 1348   65 66  360/  8/ 10 1023.6R
WACHAPREAGUE VA  1348   70 64  310/  2/  7 1023.7R
THOMAS POINT MD  1400   65 66  310/ 11/ 12   N/A
GOOSES REEF MD   1400   68 68  330/ 14/ 16 1026.7    2/ 3
COVE POINT MD    1348   67     350/ 15/ 18 1024.4R
SOLOMONS ISLAND  1348   65 69  320/  8/  9 1023.5R
BISHOPS HEAD MD  1348   68 63  340/  5/  7 1024.1R
PINEY POINT MD   1342          340/  7/  8   N/A
POTOMAC MD       1400   66 68  310/  8/ 10 1023.5
CAMBRIDGE MD     1336   68 67              1024.4R
LEWISETTA VA     1348   63 64  310/  5/  5 1024.1R
RAPPAHANNOCK LGT 1348          320/  5/  6 1024.5R
STINGRAY PT      1400   65 68  340/  6/  8 1024.4    0
YORK RVR RNG VA  1348   63     360/  6/  8 1024.6R
YORKTOWN VA      1348   63 69  290/  4/  5 1024.0R
JAMESTOWN VA     1400      68  320/  2/  4   N/A     0
DOMINION TERM VA 1348   67      40/  3/  5 1024.4R
KIPTOPEKE VA     1348      68  320/  6/  7   N/A
CAPE HENRY VA    1348   66     290/  6/  7   N/A
WILLOUBY STN VA  1348   66      CALM  /  1 1024.2R
S CRANEY ISL VA  1348   65     340/  4/  5 1024.0R
CAPE HENRY BUOY  1400      69                N/A     2/ 8
1ST LANDING BUOY 1400   67 69              1024.0    1/ 4
CAPE CHARLES BUO 1351      70                N/A     2/ 9
64NM E OF VA BCH 1350   67 68  280/ 10/ 14 1023.7R   3/ 9   3/ 9
DUCK PIER NC     1348   65 69  300/  6/  7 1023.7R
44100 DUCK FRF   1305      70                N/A     3/ 7
44056 DUCK FRF   1400      69                N/A     2/ 9
OREGON INLET NC  1342   67 68  280/  5/  6 1023.9R
HATTERAS NC      1348   68 69  330/  8/  9 1024.1R
DIAMOND SHLS NC  1350   71 81  340/  8/ 12 1023.9R   3/ 8   3/ 8
CAPE LOOKOUT NC  1400   68     320/  7/  9 1024.2R
$$




USA.gov is the U.S. government's official web portal to all federal, state and local government web resources and services.